This demonstration page uses our WeatherBlox Daily Observations layout. Learn more.

Left ArrowRight Arrow

34.74481, -87.66753

Hourly Observations for April 7, 2021

Temp ( °F °C ) Dew Point ( °F °C ) Humidity (%) Winds ( mph kmh ) Pressure ( in mb ) Visibility ( mi km ) Precip ( " mm )
12:53 am 00:53 Clear 60 15.6 49 9.4 67 67 Calm 29.99 1016 10 16 0.00 0.00
1:53 am 01:53 Clear 60 15.6 51 10.6 72 72 SE 5 7 29.98 1015 10 16 0.00 0.00
2:53 am 02:53 Clear 63 17.2 52 11.1 68 68 S 6 9 29.98 1015 10 16 0.00 0.00
3:53 am 03:53 Clear 63 17.2 54 12.2 73 73 S 3 6 29.99 1016 10 16 0.00 0.00
4:53 am 04:53 Clear 64 17.8 55 12.8 73 73 S 3 6 29.99 1016 10 16 0.00 0.00
5:53 am 05:53 Clear 63 17.2 56 13.3 78 78 S 5 7 30.00 1016 10 16 0.00 0.00
6:53 am 06:53 Sunny 60 15.6 55 12.8 84 84 ESE 5 7 30.01 1016 9 14 0.00 0.00
7:53 am 07:53 Cloudy 65 18.3 59 15 81 81 SSE 3 6 30.01 1016 10 16 0.00 0.00
8:53 am 08:53 Cloudy 68 20 59 15 73 73 SSW 7 11 30.01 1016 10 16 0.00 0.00
9:53 am 09:53 Cloudy 71 21.7 60 15.6 68 68 SSW 12 19 30.01 1016 10 16 0.00 0.00
10:53 am 10:53 Mostly Sunny 75 23.9 60 15.6 60 60 S 8 13 29.99 1016 10 16 0.00 0.00
11:53 am 11:53 Mostly Sunny 79 26.1 58 14.4 49 49 S 9 15 29.97 1015 10 16 0.00 0.00
12:53 pm 12:53 Partly Cloudy 81 27.2 54 12.2 39 39 SSW 20 31 29.94 1014 10 16 0.00 0.00
1:53 pm 13:53 Mostly Sunny 82 27.8 54 12.2 38 38 S 17 28 29.92 1013 10 16 0.00 0.00
2:53 pm 14:53 Mostly Sunny 81 27.2 52 11.1 37 37 SSW 14 22 29.90 1013 10 16 0.00 0.00
3:53 pm 15:53 Partly Cloudy 81 27.2 53 11.7 38 38 S 10 17 29.86 1011 10 16 0.00 0.00
4:53 pm 16:53 Sunny 80 26.7 53 11.7 39 39 SSW 15 24 29.84 1011 10 16 0.00 0.00
5:53 pm 17:53 Sunny 78 25.6 56 13.3 47 47 S 8 13 29.79 1009 10 16 0.00 0.00
6:53 pm 18:53 Cloudy 77 25 55 12.8 47 47 S 7 11 29.80 1009 10 16 0.00 0.00
7:53 pm 19:53 Cloudy 75 23.9 56 13.3 52 52 S 8 13 29.83 1010 10 16 0.00 0.00
8:53 pm 20:53 Mostly Clear 74 23.3 55 12.8 52 52 S 6 9 29.82 1010 10 16 0.00 0.00
9:53 pm 21:53 Clear 72 22.2 55 12.8 55 55 SSE 10 17 29.81 1009 10 16 0.00 0.00
10:53 pm 22:53 Mostly Cloudy 74 23.3 54 12.2 50 50 S 13 20 29.82 1010 10 16 0.00 0.00
11:31 pm 23:31 Cloudy with Nearby Thunderstorms 72 22.2 56 13.3 57 57 SSW 14 22 29.83 1010 9 14 0.00 0.00
11:45 pm 23:45 Cloudy with Nearby Thunderstorms 64 17.8 55 12.8 73 73 W 20 31 29.88 1012 3 4 0.12 3.05
11:53 pm 23:53 Cloudy with Nearby Thunderstorms 62 16.7 55 12.8 78 78 W 15 24 29.87 1012 2 3 0.25 6.35
11:55 pm 23:55 Cloudy with Nearby Thunderstorms 62 16.7 55 12.8 78 78 W 18 30 29.87 1012 2 3 0.06 1.52
11:57 pm 23:57 Cloudy with Heavy Rain 62 16.7 55 12.8 78 78 W 20 31 29.87 1012 2 3 0.07 1.78

Powered by AerisWeather